User: anonymous   Login
Location: Sandbanks Provincial Park
(47.6073°N, 57.6428°W)
Time: 11:38:33
(UTC-02:-30)
Language:

Cosmos 2034 Rocket - Orbit

View from above orbital plane
View from above orbital plane
View from above satellite
View from above satellite

Ground track
Ground track

The orbit data is extracted from the following two-line orbital elements,

1 20150U 89059B   17293.77688578 +.00000018 +00000-0 +28171-5 0  9990
2 20150 082.9423 000.9229 0027685 292.6098 207.1567 13.75634032417446
Epoch (UTC): 20 October 2017 18:38:42
Eccentricity: 0.0027685
inclination: 82.9423°
perigee height: 959 km
apogee height: 1000 km
right ascension of ascending node: 0.9229°
argument of perigee: 292.6098°
revolutions per day: 13.75634032
mean anomaly at epoch: 207.1567°
orbit number at epoch: 41744

The dashed part of the orbit path shows where the satellite is in the earth's shadow,  

DLR